User: anonymous   Login
Location: Unspecified
(0.0000°N, 0.0000°E)
Time: 13:09:30
(UTC+02:00)
Language:

Cosmos 2279 Rocket - Orbit

View from above orbital plane
View from above orbital plane
View from above satellite
View from above satellite

Ground track
Ground track

The orbit data is extracted from the following two-line orbital elements,

1 23093U 94024B   16126.86957231  .00000016  00000-0  79385-6 0  9998
2 23093  82.9491  57.4247 0011487  68.3806 291.8574 13.77694555575345
Epoch (UTC): 05 May 2016 20:52:11
Eccentricity: 0.0011487
inclination: 82.9491°
perigee height: 963 km
apogee height: 980 km
right ascension of ascending node: 57.4247°
argument of perigee: 68.3806°
revolutions per day: 13.77694555
mean anomaly at epoch: 291.8574°
orbit number at epoch: 57534

The dashed part of the orbit path shows where the satellite is in the earth's shadow,  

DLR